EW3670 Weather Reports


time (UTC)temp
F
wind
direction
speed
knots
gust
knots
rain 1hr
in
rain 24hr
in
rain mn
in
humidity
%
barometer
mb
20260831021605 66 0 0.0 1.7 0.00 0.00 0.00 88 1017.5
20260831020103 66 0 0.0 3.5 0.00 0.00 0.00 87 1017.4
20260831014602 66 254 0.0 1.7 0.00 0.00 0.00 87 1017.3
20260831013106 66 0 0.0 1.7 0.00 0.00 0.00 88 1017.1
20260831011604 67 0 0.0 1.7 0.00 0.00 0.00 87 1016.8
20260831010134 67 274 0.9 2.6 0.00 0.00 0.00 85 1016.7
20260831004613 68 262 0.9 1.7 0.00 0.00 0.00 84 1016.6
20260831003110 68 266 1.7 3.5 0.00 0.00 0.00 84 1016.5
20260831001609 69 0 0.0 3.5 0.00 0.00 0.00 83 1016.2
20260831000100 69 257 0.0 3.5 0.00 0.00 0.00 82 1016.1
20260830234605 70 316 1.7 4.3 0.00 0.00 0.00 80 1016.1
20260830233104 70 299 0.9 4.3 0.00 0.00 0.00 79 1016.2
20260830231601 71 287 1.7 6.1 0.00 0.00 0.00 77 1016.0
20260830230100 72 285 1.7 7.0 0.00 0.00 0.00 75 1015.8
20260830224609 72 244 1.7 5.2 0.00 0.00 0.00 73 1015.5
20260830223104 73 283 0.9 7.8 0.00 0.00 0.00 72 1015.5
20260830221600 73 292 0.9 7.8 0.00 0.00 0.00 72 1015.5
20260830220121 74 269 1.7 6.1 0.00 0.00 0.00 70 1015.2
20260830214605 74 292 1.7 8.7 0.00 0.00 0.00 70 1015.1
20260830213103 74 331 2.6 7.0 0.00 0.00 0.00 71 1015.1
20260830211604 74 283 2.6 9.6 0.00 0.00 0.00 72 1015.2
20260830210106 73 259 1.7 7.8 0.00 0.00 0.00 73 1015.2
20260830204600 72 265 0.0 5.2 0.00 0.00 0.00 75 1015.0
20260830203119 72 323 2.6 7.8 0.00 0.00 0.00 76 1015.0
20260830201601 72 315 1.7 7.0 0.00 0.00 0.00 74 1015.1
20260830200104 74 263 2.6 7.8 0.00 0.00 0.00 68 1015.0
20260830194602 73 246 1.7 7.0 0.00 0.00 0.00 70 1015.1
20260830193058 74 251 2.6 9.6 0.00 0.00 0.00 69 1015.1
20260830191601 74 259 0.9 7.8 0.00 0.00 0.00 69 1015.1
20260830190103 74 304 1.7 9.6 0.00 0.00 0.00 67 1015.2
20260830184558 74 294 4.3 8.7 0.00 0.00 0.00 68 1015.4
20260830183124 75 248 1.7 6.1 0.00 0.00 0.00 69 1015.4
20260830181623 72 284 1.7 7.0 0.00 0.00 0.00 74 1015.5
20260830180111 72 328 1.7 7.0 0.00 0.00 0.00 74 1015.7
20260830174601 71 254 1.7 6.1 0.00 0.00 0.00 76 1015.7
20260830173138 72 248 2.6 8.7 0.00 0.00 0.00 75 1016.0
20260830171606 71 234 1.7 6.1 0.00 0.00 0.00 76 1016.0
20260830170059 70 275 0.9 7.0 0.00 0.00 0.00 78 1016.0
20260830164609 69 224 0.9 6.1 0.00 0.00 0.00 78 1016.1
20260830163104 69 298 0.9 6.1 0.00 0.00 0.00 77 1016.3
20260830161625 69 219 0.9 4.3 0.00 0.00 0.00 77 1016.3
20260830160106 69 291 0.9 6.1 0.00 0.00 0.00 77 1016.3
20260830154601 69 181 0.9 5.2 0.00 0.00 0.00 74 1016.1
20260830153101 70 203 0.9 8.7 0.00 0.00 0.00 73 1016.0
20260830151603 70 202 0.9 7.0 0.00 0.00 0.00 72 1016.4
20260830150104 70 325 1.7 7.8 0.00 0.00 0.00 75 1016.2
20260830144604 69 224 1.7 6.1 0.00 0.00 0.00 75 1016.3
20260830143105 69 225 0.9 5.2 0.00 0.00 0.00 77 1016.2
20260830141602 68 313 0.9 5.2 0.00 0.00 0.00 78 1016.4
20260830140110 67 281 0.0 3.5 0.00 0.00 0.00 79 1016.5
20260830134606 66 259 1.7 6.1 0.00 0.00 0.00 79 1016.6
20260830133104 66 283 0.9 3.5 0.00 0.00 0.00 80 1016.8
20260830131616 65 264 0.9 2.6 0.00 0.00 0.00 81 1016.6
20260830130110 65 249 0.0 1.7 0.00 0.00 0.00 82 1016.4
20260830124606 65 0 0.0 0.9 0.00 0.00 0.00 82 1016.4
20260830123105 64 0 0.0 1.7 0.00 0.00 0.00 82 1016.4
20260830121601 64 0 0.0 0.0 0.00 0.00 0.00 83 1016.5
20260830114605 63 0 0.0 0.0 0.00 0.00 0.00 83 1016.6
20260830113100 63 0 0.0 1.7 0.00 0.00 0.00 84 1016.6
20260830111559 62 0 0.0 1.7 0.00 0.00 0.00 84 1016.4
20260830110124 62 232 0.0 1.7 0.00 0.00 0.00 85 1016.3
20260830104557 61 231 0.0 0.9 0.00 0.00 0.00 85 1016.1
20260830103107 61 0 0.0 0.0 0.00 0.00 0.00 85 1016.0
20260830101605 61 0 0.0 0.9 0.00 0.00 0.00 85 1016.2
20260830100059 61 0 0.0 0.0 0.00 0.00 0.00 84 1016.2
20260830094612 62 0 0.0 1.7 0.00 0.00 0.00 83 1016.0
20260830093139 62 252 0.0 1.7 0.00 0.00 0.00 83 1016.2
20260830091606 62 250 0.0 1.7 0.00 0.00 0.00 83 1016.2
20260830090105 61 0 0.0 0.0 0.00 0.00 0.00 83 1016.3
20260830084605 62 0 0.0 1.7 0.00 0.00 0.00 83 1016.3
20260830083101 62 261 0.0 1.7 0.00 0.00 0.00 82 1016.3
20260830081558 63 233 0.0 1.7 0.00 0.00 0.00 81 1016.1
20260830080104 63 0 0.0 1.7 0.00 0.00 0.00 80 1016.0
20260830074656 64 0 0.0 3.5 0.00 0.00 0.00 78 1016.1
20260830073111 64 255 0.9 3.5 0.00 0.00 0.00 79 1016.3
20260830071606 64 275 0.9 2.6 0.00 0.00 0.00 79 1016.2
20260830070105 63 271 0.9 2.6 0.00 0.00 0.00 79 1016.2
20260830064602 63 256 0.0 1.7 0.00 0.00 0.00 79 1016.3
20260830063059 64 0 0.0 1.7 0.00 0.00 0.00 78 1016.4
20260830061605 64 281 0.0 0.0 0.00 0.00 0.00 79 1016.4
20260830054555 64 0 0.9 4.3 0.00 0.00 0.00 76 1016.4
20260830053104 64 252 0.0 3.5 0.00 0.00 0.00 76 1016.5
20260830051605 64 0 0.0 1.7 0.00 0.00 0.00 76 1016.6
20260830050112 65 258 0.9 2.6 0.00 0.00 0.00 74 1016.6
20260830044604 64 254 0.0 1.7 0.00 0.00 0.00 75 1016.6
20260830043110 65 0 0.0 0.9 0.00 0.00 0.00 73 1016.5
20260830041659 65 259 0.0 1.7 0.00 0.00 0.00 71 1016.4
20260830034607 66 257 0.0 4.3 0.00 0.00 0.00 70 1016.4
20260830033104 66 303 0.9 2.6 0.00 0.00 0.00 69 1016.3
20260830031602 66 246 0.9 6.1 0.00 0.00 0.00 68 1016.3
20260830030059 66 212 0.0 3.5 0.00 0.00 0.00 69 1016.2
20260830024602 66 243 0.9 6.1 0.00 0.00 0.00 68 1016.2
20260830023119 66 200 0.9 3.5 0.00 0.00 0.00 67 1016.2